Millville, NJ

6:19 AM EDT on March 24, 2017 (GMT -0400)
Millville Municipal

Weather History for KMIV - April, 2013

Change the Weather History Date:

Tuesday, April 30, 2013

  Actual Average Record
Temperature  
Mean Temperature 58 °F -  
Max Temperature 66 °F 68 °F 84 °F (1974)
Min Temperature 48 °F 44 °F 30 °F (2001)
Degree Days  
Heating Degree Days 7    
Growing Degree Days 8 (Base 50)    
Moisture  
Dew Point 46 °F    
Average Humidity 71    
Maximum Humidity 94    
Minimum Humidity 30    
Precipitation  
Precipitation 0.04 in - - ()
Sea Level Pressure  
Sea Level Pressure 30.20 in    
Wind  
Wind Speed 10 mph (East)    
Max Wind Speed 17 mph    
Max Gust Speed 25 mph    
Visibility 9 miles    
Events Rain    
Averages and records for this station are not official NWS values.
T = Trace of Precipitation, MM = Missing Value Source: NWS Daily Summary

Daily Weather History Graph

Daily Weather History Graph

Search for Another Location

Airport or City:

Trip Planner

Search our weather history database for the weather conditions in past years. The results will help you decide how hot, cold, wet, or windy it might be!

Date:

Astronomy

Apr. 30, 2013 Rise Set
Actual Time 6:02 AM EDT 7:53 PM EDT
Civil Twilight 5:33 AM EDT 8:22 PM EDT
Nautical Twilight 4:58 AM EDT 8:57 PM EDT
Astronomical Twilight 4:20 AM EDT 9:35 PM EDT
Moon 12:13 AM EDT (4/30) 10:28 AM EDT (4/30)
Length of Visible Light 14h 48m
Length of Day
13h 50m
Waning Gibbous, 70% of the Moon is Illuminated
Apr 30
Waning Gibbous
May 2
Last Quarter
May 9
New
May 18
First Quarter
May 25
Full

Hourly Weather History & Observations

Time (EDT) Temp. Dew Point Humidity Pressure Visibility Wind Dir Wind Speed Gust Speed Precip Events Conditions
12:22 AM 53.6 °F 51.8 °F 94% 30.16 in 2.5 mi East 5.8 mph - 0.02 in Rain Light Rain
12:31 AM 53.6 °F 51.8 °F 94% 30.16 in 3.0 mi East 6.9 mph - 0.02 in Rain Light Rain
12:54 AM 54.0 °F 52.0 °F 93% 30.15 in 4.0 mi East 6.9 mph - 0.03 in Rain Light Rain
1:54 AM 54.0 °F 52.0 °F 93% 30.14 in 4.0 mi East 9.2 mph 18.4 mph 0.00 in   Overcast
2:54 AM 54.0 °F 52.0 °F 93% 30.13 in 5.0 mi East 11.5 mph - 0.01 in Rain Light Rain
3:51 AM 53.6 °F 51.8 °F 94% 30.14 in 10.0 mi East 10.4 mph - 0.00 in   Overcast
3:54 AM 53.1 °F 51.1 °F 93% 30.14 in 10.0 mi East 11.5 mph - 0.00 in   Overcast
4:11 AM 53.6 °F 50.0 °F 88% 30.14 in 10.0 mi East 10.4 mph - N/A   Overcast
4:29 AM 53.6 °F 50.0 °F 88% 30.15 in 10.0 mi East 10.4 mph - N/A   Overcast
4:54 AM 52.0 °F 50.0 °F 93% 30.15 in 10.0 mi East 9.2 mph - N/A   Overcast
5:54 AM 53.1 °F 50.0 °F 89% 30.16 in 10.0 mi East 6.9 mph - N/A   Overcast
6:54 AM 52.0 °F 50.0 °F 93% 30.18 in 10.0 mi ENE 6.9 mph - N/A   Overcast
7:54 AM 54.0 °F 50.0 °F 86% 30.20 in 10.0 mi ENE 8.1 mph - N/A   Overcast
8:54 AM 57.9 °F 50.0 °F 75% 30.22 in 10.0 mi ENE 12.7 mph - N/A   Overcast
9:54 AM 61.0 °F 46.9 °F 60% 30.22 in 10.0 mi East 16.1 mph 21.9 mph N/A   Overcast
10:54 AM 63.0 °F 46.9 °F 56% 30.22 in 10.0 mi East 15.0 mph 21.9 mph N/A   Overcast
11:54 AM 66.9 °F 48.9 °F 52% 30.22 in 10.0 mi ESE 16.1 mph 25.3 mph N/A   Mostly Cloudy
12:54 PM 64.9 °F 46.9 °F 52% 30.22 in 10.0 mi East 17.3 mph 23.0 mph N/A   Overcast
1:54 PM 66.0 °F 46.0 °F 48% 30.22 in 10.0 mi East 15.0 mph 23.0 mph N/A   Overcast
2:54 PM 64.0 °F 43.0 °F 46% 30.23 in 10.0 mi ESE 15.0 mph - N/A   Overcast
3:54 PM 64.0 °F 44.1 °F 48% 30.23 in 10.0 mi East 13.8 mph - N/A   Overcast
4:54 PM 63.0 °F 35.1 °F 35% 30.25 in 10.0 mi East 16.1 mph - N/A   Overcast
5:54 PM 63.0 °F 30.9 °F 30% 30.26 in 10.0 mi ENE 11.5 mph - N/A   Overcast
6:54 PM 60.1 °F 28.9 °F 31% 30.26 in 10.0 mi ENE 8.1 mph - N/A   Clear
7:54 PM 57.9 °F 39.9 °F 51% 30.27 in 10.0 mi East 13.8 mph - N/A   Mostly Cloudy
8:54 PM 55.9 °F 41.0 °F 57% 30.29 in 10.0 mi East 10.4 mph - N/A   Overcast
10:54 PM 50.0 °F 41.0 °F 71% 30.29 in 10.0 mi ENE 5.8 mph - N/A   Clear
11:54 PM 48.9 °F 41.0 °F 74% 30.30 in 10.0 mi NE 4.6 mph - N/A   Clear